Weather History for PHLI - September, 2012

Change the Weather History Date:

Tuesday, September 18, 2012

  Actual Average Record
Temperature  
Mean Temperature 80 °F 79 °F  
Max Temperature 84 °F 85 °F 89 °F (1995)
Min Temperature 76 °F 74 °F 67 °F (1961)
Degree Days  
Heating Degree Days 0 0  
Month to date heating degree days 0 0  
Since 1 July heating degree days 0 0  
Cooling Degree Days 15 14  
Month to date cooling degree days 252 267  
Year to date cooling degree days 2895 2793  
Growing Degree Days 28 (Base 50)    
Moisture  
Dew Point 66 °F    
Average Humidity 66    
Maximum Humidity 74    
Minimum Humidity 58    
Precipitation  
Precipitation 0.00 in 0.07 in 2.52 in (1980)
Month to date precipitation 0.56 1.12  
Year to date precipitation 35.69 22.57  
Snow  
Snow 0.00 in - - ()
Month to date snowfall 0.0  
Since 1 July snowfall 0.0  
Since 1 September snowfall 0.0  
Snow Depth 0.00 in    
Sea Level Pressure  
Sea Level Pressure 30.00 in    
Wind  
Wind Speed 12 mph (ENE)    
Max Wind Speed 17 mph    
Max Gust Speed 21 mph    
Visibility 10 miles    
Events      
T = Trace of Precipitation, MM = Missing Value Source: NWS Daily Summary

Daily Weather History Graph

Daily Weather History Graph

Search for Another Location

Airport or City:

Trip Planner

Search our weather history database for the weather conditions in past years. The results will help you decide how hot, cold, wet, or windy it might be!

Date:

Astronomy

Sep. 18, 2012 Rise Set
Actual Time 6:25 AM HST 6:36 PM HST
Civil Twilight 6:02 AM HST 6:59 PM HST
Nautical Twilight 5:36 AM HST 7:25 PM HST
Astronomical Twilight 5:10 AM HST 7:51 PM HST
Moon 9:07 AM HST (9/18) 8:42 PM HST (9/18)
Length of Visible Light 12h 56m
Length of Day
12h 11m
Waxing Crescent, 11% of the Moon is Illuminated
Sep 18
Waxing Crescent
Sep 22
First Quarter
Sep 29
Full
Oct 7
Last Quarter
Oct 15
New

Hourly Weather History & Observations

Time (HST) Temp. Heat Index Dew Point Humidity Pressure Visibility Wind Dir Wind Speed Gust Speed Precip Events Conditions
12:53 AM 77.0 °F - 66.9 °F 71% 30.01 in 10.0 mi ENE 13.8 mph - N/A   Mostly Cloudy
1:53 AM 75.9 °F - 66.9 °F 74% 30.00 in 10.0 mi East 11.5 mph - N/A   Overcast
2:53 AM 75.9 °F - 66.9 °F 74% 29.99 in 10.0 mi ENE 11.5 mph - N/A   Overcast
3:06 AM 75.2 °F - 66.2 °F 73% 29.99 in 10.0 mi ENE 12.7 mph - N/A   Overcast
3:53 AM 75.9 °F - 66.0 °F 71% 29.99 in 10.0 mi ENE 12.7 mph - N/A   Overcast
4:53 AM 75.9 °F - 66.0 °F 71% 29.99 in 10.0 mi ENE 11.5 mph - N/A   Overcast
5:53 AM 75.9 °F - 64.9 °F 69% 30.00 in 10.0 mi NE 11.5 mph - N/A   Overcast
6:53 AM 75.9 °F - 64.9 °F 69% 30.02 in 10.0 mi ENE 11.5 mph - N/A   Scattered Clouds
7:53 AM 78.1 °F - 64.9 °F 64% 30.01 in 10.0 mi ENE 11.5 mph - N/A   Partly Cloudy
8:53 AM 80.1 °F 82.1 °F 66.0 °F 62% 30.01 in 10.0 mi ENE 11.5 mph - N/A   Partly Cloudy
9:53 AM 81.0 °F 82.7 °F 64.9 °F 58% 30.02 in 10.0 mi ENE 13.8 mph - N/A   Partly Cloudy
10:53 AM 82.9 °F 85.0 °F 66.0 °F 56% 30.02 in 10.0 mi East 11.5 mph - N/A   Partly Cloudy
11:53 AM 82.0 °F 84.1 °F 66.0 °F 58% 30.01 in 10.0 mi ENE 12.7 mph - N/A   Partly Cloudy
12:53 PM 82.9 °F 85.0 °F 66.0 °F 56% 29.99 in 10.0 mi ENE 12.7 mph - N/A   Partly Cloudy
1:53 PM 82.0 °F 84.1 °F 66.0 °F 58% 29.97 in 10.0 mi ENE 11.5 mph - N/A   Partly Cloudy
2:53 PM 82.0 °F 84.1 °F 66.0 °F 58% 29.95 in 10.0 mi ENE 10.4 mph - N/A   Partly Cloudy
3:53 PM 81.0 °F 83.0 °F 66.0 °F 60% 29.95 in 10.0 mi ENE 10.4 mph - N/A   Partly Cloudy
4:53 PM 80.1 °F 82.1 °F 66.0 °F 62% 29.95 in 10.0 mi NE 9.2 mph - N/A   Partly Cloudy
5:53 PM 78.1 °F - 66.0 °F 66% 29.96 in 10.0 mi NE 11.5 mph - N/A   Scattered Clouds
6:53 PM 77.0 °F - 66.0 °F 69% 29.98 in 10.0 mi NE 11.5 mph - N/A   Scattered Clouds
7:53 PM 77.0 °F - 66.9 °F 71% 30.00 in 10.0 mi ENE 11.5 mph - N/A   Scattered Clouds
8:53 PM 75.9 °F - 66.9 °F 74% 30.01 in 10.0 mi NE 11.5 mph - N/A   Scattered Clouds
9:53 PM 75.9 °F - 66.0 °F 71% 30.03 in 10.0 mi ENE 11.5 mph - N/A   Clear
10:53 PM 75.9 °F - 66.9 °F 74% 30.03 in 10.0 mi ENE 10.4 mph - N/A   Partly Cloudy
11:53 PM 75.9 °F - 66.9 °F 74% 30.02 in 10.0 mi ENE 12.7 mph - N/A   Scattered Clouds